Погода в Сретенске

Россия / Забайкальский край     52°14′46″N   117°42′42″E
В апреле 2022 года жителям России запретили посещать сайт meteo.paraplan.net по решению Генеральной прокуратуры. Аудитория сайта уменьшилась в 10 раз. Владельцы сайта не видят смысла в поддержке погодного сервера в таких условиях. Сайт будет закрыт в октябре.
темп.,
°C
ветер,
м/с
пор.,
м/с
влажн.,
%
обл.,
%
осадки,
мм/ч
давл.,
гПа
погр.,
м
3 октября, пн
пн300:00−4юз115112 0.0 102610
03:00−5з11559 0.0 102710
06:00−6з115822 0.0 102912
09:00−3зсз274218 0.0 1029565
12:00+1сз5726100 0.0 10282540
15:00+2сз5624100 0.0 10272780
18:00+1сз363278 0.0 1028336
21:00−4з11475 0.0 103010
4 октября, вт
вт400:00−5зюз11484 0.0 103110
03:00−6зюз11500 0.0 103110
06:00−7зюз11510 0.0 103111
09:00−3зюз12390 0.0 1031214
12:00+2з34295 0.0 10291265
15:00+4сз462442 0.0 10262486
18:00+1сз233618 0.0 102649
21:00−4з114997 0.0 102810
5 октября, ср
ср500:00−5юз115270 0.0 102810
03:00−6зюз115724 0.0 102810
06:00−6зюз11588 0.0 102910
09:00−3зюз12455 0.0 1028202
12:00+2з36305 0.0 10261428
15:00+4з452862 0.0 10232107
18:00+1зюз25419 0.0 1023120
21:00−4ююз11555 0.0 102510
6 октября, чт
чт600:00−5ююз11605 0.0 102512
03:00−6ююз11630 0.0 102412
06:00−6ююз11660 0.0 102411
09:00−2юз11530 0.0 1023158
12:00+3з24363 0.0 1021907
15:00+5з34311 0.0 10191398
18:00+2зюз22455 0.0 101914
21:00−3ююз11575 0.0 102110
7 октября, пт
пт700:00−4ю11645 0.0 102211
03:00−5ююв11685 0.0 102310
06:00−5ююв11715 0.0 102310
09:00−1ю01555 0.0 1023134
12:00+5зюз11355 0.0 1021718
15:00+7зсз113220 0.0 10201422
18:00+3сз114885 0.0 102110
21:00−1св1158100 0.0 102310